Chan Gurney Municipal Airport
KYKN : rendu visible

Aérodrome :











RETROUVEZ-NOUS SUR...

 
LOGIN :

S'inscrire | Disclaimer

   EN    FR    IT 

 









Légende :    VFR   VFR Marginal   IFR   IFR Intensif   IFR Très Intensif
Visi : 
Plafond : 
>= 8 km
>= 3000ft
5 à 8 km
1000 à 3000 ft
1500m à 5 km
500 à 1000 ft
800 à 1500m
200 à 500 ft
< 800m
< 200 ft
Symboles :   Orages  Brouillard  Fortes neiges  Fortes précipitations  Vent > 20 kt






- Altitude de l'aérodrome : 1306 ft


KYKN - Chan Gurney Municipal

DERNIER METAR :
  • 072356Z AUTO 15016KT 10SM OVC033 29/23 A2983 RMK AO2 SLP101 T02890228 10294 20244 56006

METARs EXPIRÉS :
  • 072256Z AUTO 16012KT 10SM BKN033 29/23 A2983 RMK AO2 SLP101 T02890228
  • 072156Z AUTO 14016KT 10SM BKN025 OVC031 28/23 A2983 RMK AO2 SLP104 T02780233

TAF N/A
FIR KZMP / Amérique du Nord



MET'MAP, la Météo Aéronautique d'un coup d'oeil ! - Copyright ORBIFLY Décembre 2007 - Disclaimer

ORBIFLY MET'MAP TEAM :

Programmation & Développement : Alexandra Zaïnal
Sur une idée originale de : Baudouin d'Aumeries
Assistance à la programmation : Marc-Olivier Méhu
Soutien technique & logistique : Manuel Goepfert

Contact : metmap@orbifly.com




SOURCES & CREDITS :

   NOAA       Earth
Advisory